Home > Weather > Atlantic City > Past weeks

Flag for USA Past Weather in Atlantic City, New Jersey, USA — Yesterday and Last 2 Weeks

Now
71 °F

Clear.


Feels Like: 69 °F
Forecast: 75 / 85 °F
Wind: 3 mph from Northwest

Location: Atlantic City International Airport

Current Time: Jul 24, 2016 at 6:54:45 AM

Latest Report: Jul 24, 2016 at 5:54 AM


Visibility: 10 mi

Pressure: 29.95 "Hg

Humidity: 87%

Dew Point: 67 °F

Location of Atlantic CityLocation

Past Weather in Atlantic City — Graph

°F

Atlantic City Temperature Yesterday

Maximum temperature yesterday: 95 °F (at 3:54 PM)
Minimum temperature yesterday: 75 °F (at 6:54 PM)
Average temperature yesterday: 83 °F

High & Low Weather Summary for the Past Weeks

 TemperatureHumidityPressure
High95 °F (Jul 23, 3:54 PM)93% (Jul 9, 5:54 AM)30.22 "Hg (Jul 9, 5:54 AM)
Low62 °F (Jul 11, 4:54 AM)42% (Jul 15, 3:54 PM)29.79 "Hg (Jul 9, 8:54 PM)
Average78 °F70%30.01 "Hg
* Reported Jul 9 5:54 AM — Jul 24 5:54 AM, Atlantic City, Weather by CustomWeather, © 2016

Note: Actual official high and low records may vary slightly from our data, if they occured in-between our weather recording intervals... More about our weather records

Advertising

Atlantic City Weather History for the Previous 24 Hours

Scroll right to see more
 ConditionsComfort  
Time TempWeatherWind HumidityBarometerVisibility
5:54 AM
Sun, Jul 24
71 °FClear.3 mph87%29.95 "Hg10 mi
4:54 AM71 °FClear.3 mph87%29.93 "Hg10 mi
3:54 AM70 °FClear.3 mph90%29.93 "Hg9 mi
2:54 AM72 °FClear.No wind87%29.93 "Hg10 mi
1:54 AM72 °FClear.5 mph91%29.93 "Hg10 mi
12:54 AM73 °FClear.No wind88%29.92 "Hg10 mi
11:54 PM
Sat, Jul 23
75 °FClear.5 mph82%29.90 "Hg10 mi
10:54 PM75 °FPassing clouds.No wind82%29.89 "Hg10 mi
9:54 PM75 °FClear.3 mph82%29.89 "Hg10 mi
8:54 PM76 °FPartly sunny.5 mph82%29.88 "Hg10 mi
7:54 PM76 °FSunny.No wind82%29.88 "Hg10 mi
6:54 PM75 °FPartly sunny.No wind82%29.86 "Hg10 mi
5:54 PM91 °FSunny.8 mph52%29.83 "Hg10 mi
4:54 PM95 °FSunny.13 mph44%29.83 "Hg10 mi
3:54 PM95 °FPassing clouds.15 mph44%29.85 "Hg10 mi
2:54 PM93 °FPartly sunny.8 mph47%29.86 "Hg10 mi
1:54 PM94 °FPassing clouds.12 mph46%29.86 "Hg10 mi
12:54 PM92 °FPassing clouds.12 mph51%29.88 "Hg10 mi
11:54 AM91 °FSunny.8 mph52%29.89 "Hg10 mi
10:54 AM90 °FSunny.12 mph54%29.90 "Hg10 mi
9:54 AM88 °FSunny.10 mph59%29.90 "Hg10 mi
8:54 AM84 °FSunny.12 mph65%29.90 "Hg10 mi
7:54 AM81 °FSunny.7 mph69%29.90 "Hg10 mi
6:54 AM78 °FSunny.7 mph76%29.90 "Hg10 mi
Weather by CustomWeather, © 2016

See weather overviewHow to use our weather pages